CAPE
0 0 0 0 3 82 237 0 0 0 0 2 181 78 26 13 9 0 231 351 214 116 79 47 694 691 476 273 213 229 261 302 187 101 6 0 191 558 944 1036 1190 1082 554 489 669 851 889 756 696
0 0 0 0 17 23 0 0 0 0 0 0 287 97 2 0 0 115 97 279 137 43 0 14 924 824 306 248 519 501 379 200 107 130 502 23 94 532 721 999 1005 559 411 418 544 585 479 349 275
0 0 0 0 0 20 2 0 0 0 0 2 26 112 197 0 0 0 88 136 39 0 0 72 1088 1003 870 103 516 239 87 19 0 0 0 364 180 248 918 840 1019 479 270 273 342 440 454 523 451
0 0 0 0 0 22 24 0 0 0 0 215 258 109 129 9 0 0 39 12 0 0 0 577 1211 936 646 279 286 191 51 14 12 10 4 0 80 359 470 1080 1087 430 147 143 357 392 470 671 546
0 0 0 0 0 11 24 1 0 0 0 70 0 106 102 0 0 0 0 0 0 0 45 301 1347 998 841 388 309 200 27 65 29 14 57 52 4 287 375 631 882 260 84 81 193 154 191 211 210
0 0 0 5 5 48 13 0 2 0 0 67 67 63 38 0 0 0 0 0 0 0 10 313 1083 979 1020 611 434 275 240 194 111 41 27 44 132 203 239 360 423 241 150 21 12 21 12 14 115
0 0 16 0 6 8 0 0 0 0 0 45 23 96 9 0 0 0 0 0 0 0 3 230 392 800 740 802 694 388 310 346 329 262 192 139 62 250 234 194 190 140 93 4 0 0 15 124 137
0 0 29 71 0 124 0 0 0 0 0 161 95 96 9 0 0 0 0 0 0 0 0 104 224 378 359 435 485 444 387 418 457 273 153 145 77 222 276 199 201 123 13 0 0 0 67 385 513
0 0 34 58 0 73 20 0 0 0 0 132 377 70 0 0 0 0 0 0 0 0 0 0 97 191 105 259 349 501 262 166 337 156 216 68 0 0 0 10 467 332 196 104 103 142 216 405 724
0 0 15 41 82 46 16 0 0 5 46 203 278 60 0 0 0 0 0 0 0 0 0 0 3 121 0 309 270 103 65 23 0 0 0 0 0 0 0 51 462 542 440 445 444 461 441 503 0
0 0 1 0 0 7 0 0 12 193 81 72 25 0 0 0 0 0 0 0 0 0 0 0 0 0 0 76 17 0 0 0 0 0 0 0 0 0 0 0 19 0 89 0 28 38 2 0 0
0 0 0 0 0 0 0 0 68 547 330 176 48 2 12 9 0 0 0 0 0 0 0 0 0 0 2 0 0 0 0 0 0 0 1 0 1 0 0 0 0 0 0 0 0 0 0 0 0
0 0 0 0 0 0 0 0 60 441 162 341 186 66 11 5 0 0 0 0 0 0 0 0 0 0 0 0 0 0 0 0 0 11 163 29 0 0 0 0 0 0 0 0 0 0 0 0 0
0 0 0 0 0 0 0 0 88 144 140 285 276 131 75 4 0 0 0 0 0 0 0 0 3 5 0 2 238 0 3 0 0 101 237 39 404 401 393 295 45 39 0 0 0 0 51 12 0
0 0 0 0 0 0 0 0 159 305 216 216 195 176 152 56 0 0 0 0 0 0 0 0 0 0 0 0 298 25 2 1 0 0 162 200 130 191 702 427 597 152 250 537 326 27 18 0 0
0 0 0 0 0 0 0 0 239 430 353 205 176 136 169 94 10 0 0 0 0 0 0 0 11 10 173 81 86 146 30 0 0 0 0 515 360 131 313 483 223 312 523 894 740 445 217 26 20
0 0 0 0 0 0 0 41 33 289 503 423 203 135 89 33 2 0 0 0 0 0 0 0 0 26 55 234 253 494 92 271 219 8 14 111 684 769 417 434 722 734 877 743 779 443 436 500 373
0 0 0 0 0 0 0 67 7 3 216 599 407 238 139 58 69 8 0 0 0 0 0 0 0 31 110 130 256 183 254 132 55 46 24 30 394 444 693 564 498 563 831 896 782 1047 559 978 548
0 0 0 0 0 0 0 33 6 0 2 744 639 481 245 98 99 6 0 0 0 9 0 0 0 7 332 444 346 227 204 184 80 16 14 37 107 546 411 818 807 715 678 632 534 752 1182 819 878
0 0 0 0 0 0 0 0 10 0 141 388 564 563 380 298 109 22 0 0 0 92 153 152 31 48 687 369 404 372 279 223 181 112 68 82 96 111 474 666 648 613 735 978 885 522 880 581 847
0 0 0 0 0 0 0 0 1 224 512 730 671 527 759 603 294 77 91 0 145 135 893 817 799 1317 667 754 871 729 806 925 723 608 689 359 360 276 219 520 877 888 1072 1166 918 740 619 520 328
0 0 0 0 0 0 0 0 0 359 623 575 616 645 842 703 713 419 297 308 243 550 465 875 1503 1880 1951 1163 1505 1460 1067 1193 1360 991 847 1187 1422 772 390 413 707 856 1113 945 691 454 399 324 332
0 0 0 0 0 0 0 0 0 268 435 401 382 582 949 1130 1380 1546 1544 1537 1475 1504 1438 1631 2121 2293 2132 2976 2066 1918 1981 2036 1922 1540 1359 790 928 832 1066 1148 851 756 610 573 494 456 350 146 182
0 0 0 0 0 0 0 0 0 0 325 258 534 1315 1361 1366 1414 1216 1316 1319 1456 1154 1443 1491 1548 1470 1710 1900 2206 2658 2282 1553 1497 1304 1173 939 706 788 769 671 647 690 451 353 214 16 0 0 1
0 0 0 0 0 0 0 0 0 0 196 372 1184 1371 1460 1373 1029 886 931 972 1002 1242 1121 1181 1051 1005 944 1222 1021 1058 1135 1148 1106 753 621 708 536 460 210 96 42 16 0 1 0 0 0 0 0
0 0 0 0 0 0 0 0 0 587 499 1279 1071 1059 1062 976 973 877 771 629 643 626 755 709 776 881 591 582 748 874 1011 840 857 670 611 423 160 117 13 0 0 0 0 0 0 0 0 0 0
0 0 0 0 0 0 0 1110 776 643 1161 911 856 917 834 787 759 694 648 582 481 477 582 672 740 703 700 632 508 687 729 520 257 313 120 14 0 0 0 0 0 0 0 0 0 0 0 0 0
0 0 0 0 0 0 101 1064 771 1094 772 806 622 598 605 552 672 659 517 449 530 661 692 738 696 745 640 340 252 78 87 49 66 32 0 0 0 0 0 0 0 0 0 0 0 0 0 0 0
0 0 0 0 0 0 184 840 316 930 417 326 463 443 566 663 674 719 622 374 167 64 43 123 107 260 85 7 1 2 2 0 0 0 0 0 0 0 0 0 0 0 0 0 0 0 0 0 0
0 0 0 0 0 0 134 611 641 233 0 0 8 584 380 398 413 498 381 208 132 35 10 17 222 254 2 0 0 0 0 0 0 0 0 0 0 0 0 0 0 0 0 0 0 0 0 0 0
CIN
-0 -0 -0 -0 -209 -135 -103 -0 -0 -0 -0 -31 -99 -153 -93 -71 -56 -0 -233 -278 -301 -368 -295 -253 -81 -78 -86 -107 -112 -75 -54 -22 -35 -98 -185 -0 -48 -12 -1 -1 -0 -0 -0 -1 -0 -0 -3 -29 -43
-0 -0 -0 -0 -150 -95 -0 -0 -0 -0 -0 -0 -73 -125 -20 -0 -0 -265 -299 -243 -391 -448 -0 -363 -64 -67 -125 -129 -59 -36 -36 -59 -111 -79 -3 -77 -118 -15 -14 -4 -0 -7 -5 -4 -0 -4 -23 -51 -76
-0 -0 -0 -0 -0 -39 -12 -0 -0 -0 -0 -15 -87 -185 -107 -0 -0 -0 -309 -315 -467 -0 -0 -322 -54 -55 -51 -225 -62 -90 -160 -272 -0 -0 -0 -31 -88 -63 -1 -4 -0 -18 -33 -28 -12 -12 -23 -34 -59
-0 -0 -0 -0 -1 -90 -36 -0 -0 -0 -0 -69 -88 -173 -132 -29 -0 -0 -368 -482 -0 -0 -0 -136 -46 -51 -77 -175 -137 -143 -223 -317 -338 -300 -278 -0 -170 -33 -25 -0 -0 -24 -72 -75 -14 -22 -29 -31 -52
-0 -0 -0 -0 -0 -269 -34 -21 -0 -0 -0 -171 -0 -202 -230 -0 -0 -0 -0 -0 -0 -0 -557 -241 -46 -62 -63 -127 -132 -172 -306 -252 -329 -353 -217 -198 -58 -64 -36 -7 -0 -42 -111 -101 -31 -35 -53 -73 -90
-0 -0 -0 -115 -244 -138 -28 -0 -10 -0 -0 -199 -238 -276 -328 -0 -0 -0 -0 -0 -0 -0 -572 -271 -77 -71 -56 -86 -109 -172 -177 -188 -238 -341 -330 -266 -145 -80 -76 -47 -26 -43 -75 -230 -215 -240 -229 -237 -116
-0 -0 -67 -0 -230 -85 -0 -0 -0 -0 -0 -215 -252 -286 -161 -0 -0 -0 -0 -0 -0 -0 -149 -366 -248 -86 -78 -70 -67 -133 -167 -142 -131 -140 -158 -177 -230 -86 -78 -92 -87 -95 -106 -156 -0 -0 -234 -115 -106
-0 -0 -49 -121 -1 -229 -0 -0 -0 -0 -0 -169 -256 -316 -164 -0 -0 -0 -0 -0 -0 -0 -0 -520 -403 -254 -235 -164 -143 -145 -155 -137 -116 -163 -203 -188 -212 -137 -112 -133 -120 -132 -183 -0 -0 -0 -138 -94 -90
-0 -0 -123 -126 -15 -86 -61 -0 -0 -0 -0 -132 -170 -348 -0 -0 -0 -0 -0 -0 -0 -0 -0 -0 -516 -424 -502 -331 -240 -164 -251 -295 -193 -261 -208 -168 -0 -0 -0 -66 -90 -120 -145 -163 -152 -130 -114 -103 -103
-0 -0 -102 -129 -165 -158 -95 -0 -0 -119 -205 -205 -269 -396 -0 -0 -0 -0 -0 -0 -0 -0 -0 -0 -158 -493 -54 -292 -366 -477 -473 -505 -0 -0 -0 -0 -0 -0 -0 -193 -136 -112 -125 -128 -124 -117 -116 -117 -0
-0 -0 -45 -0 -0 -169 -8 -0 -53 -135 -199 -253 -386 -47 -0 -0 -0 -0 -0 -0 -0 -0 -0 -0 -0 -0 -0 -495 -645 -0 -0 -0 -0 -0 -0 -0 -0 -0 -0 -0 -37 -10 -298 -0 -34 -30 -39 -0 -0
-0 -0 -0 -0 -0 -0 -0 -0 -58 -69 -127 -230 -352 -282 -497 -520 -0 -0 -0 -0 -0 -0 -0 -0 -0 -0 -479 -0 -0 -0 -0 -0 -0 -0 -54 -0 -26 -0 -0 -0 -0 -0 -0 -0 -0 -0 -0 -0 -0
-0 -0 -0 -0 -0 -0 -0 -0 -68 -98 -129 -173 -268 -379 -470 -535 -0 -0 -0 -0 -0 -0 -0 -0 -0 -0 -69 -0 -0 -0 -0 -0 -0 -373 -358 -61 -0 -0 -0 -0 -0 -0 -0 -0 -0 -0 -0 -0 -0
-0 -0 -0 -0 -0 -0 -0 -0 -45 -111 -158 -160 -204 -308 -382 -351 -0 -0 -0 -0 -0 -0 -0 -0 -131 -145 -0 -284 -326 -0 -265 -0 -0 -405 -328 -364 -230 -234 -198 -189 -281 -187 -0 -0 -0 -0 -100 -140 -0
-0 -0 -0 -0 -0 -0 -0 -0 -42 -94 -131 -138 -177 -241 -302 -402 -0 -0 -0 -0 -0 -0 -0 -0 -0 -17 -0 -0 -341 -411 -54 -32 -0 -0 -311 -317 -329 -290 -147 -181 -105 -186 -124 -68 -109 -192 -217 -18 -0
-0 -0 -0 -0 -0 -0 -0 -0 -51 -78 -95 -158 -157 -215 -278 -341 -467 -0 -0 -0 -0 -0 -0 -0 -517 -552 -443 -447 -459 -422 -461 -0 -55 -0 -0 -255 -273 -327 -241 -187 -230 -185 -108 -67 -68 -71 -82 -169 -143
-0 -0 -0 -0 -0 -0 -0 -54 -137 -61 -71 -111 -156 -201 -282 -366 -222 -137 -0 -0 -0 -0 -0 -0 -0 -600 -576 -489 -464 -398 -455 -413 -425 -257 -460 -385 -234 -197 -257 -224 -137 -125 -95 -80 -73 -96 -90 -59 -88
-0 -0 -0 -0 -0 -0 -0 -41 -76 -78 -104 -60 -140 -168 -227 -310 -374 -287 -0 -0 -0 -0 -0 -0 -0 -698 -628 -610 -540 -542 -483 -506 -525 -487 -355 -455 -315 -271 -212 -210 -180 -147 -95 -82 -87 -71 -113 -70 -81
-0 -0 -0 -0 -0 -0 -0 -57 -71 -0 -57 -77 -85 -122 -235 -295 -393 -295 -0 -0 -0 -369 -0 -0 -0 -402 -582 -560 -534 -556 -515 -520 -527 -519 -454 -393 -385 -268 -307 -197 -161 -151 -116 -94 -91 -97 -47 -68 -111
-0 -0 -0 -0 -0 -0 -0 -0 -56 -0 -90 -73 -82 -81 -169 -260 -353 -399 -0 -0 -0 -481 -618 -606 -557 -671 -472 -547 -539 -496 -509 -506 -481 -492 -473 -409 -355 -323 -248 -213 -181 -145 -99 -59 -68 -77 -68 -104 -73
-0 -0 -0 -0 -0 -0 -0 -0 -24 -58 -59 -78 -80 -91 -74 -150 -266 -347 -382 -0 -541 -521 -369 -429 -440 -348 -454 -418 -381 -381 -342 -294 -280 -271 -269 -360 -354 -366 -342 -210 -139 -114 -98 -57 -73 -103 -57 -74 -109
-0 -0 -0 -0 -0 -0 -0 -0 -0 -77 -75 -121 -114 -144 -159 -154 -161 -223 -294 -323 -386 -374 -414 -355 -311 -288 -256 -319 -228 -204 -239 -164 -104 -151 -166 -129 -171 -290 -313 -262 -148 -110 -72 -72 -106 -113 -81 -79 -72
-0 -0 -0 -0 -0 -0 -0 -0 -0 -125 -127 -152 -204 -229 -212 -238 -184 -220 -245 -197 -174 -216 -232 -266 -176 -174 -154 -88 -136 -95 -58 -40 -47 -86 -99 -244 -202 -252 -206 -151 -188 -166 -153 -131 -127 -108 -102 -138 -91
-0 -0 -0 -0 -0 -0 -0 -0 -0 -0 -140 -208 -226 -202 -231 -259 -269 -293 -288 -308 -240 -246 -302 -325 -327 -318 -213 -135 -77 -23 -25 -81 -67 -97 -121 -148 -188 -161 -154 -148 -170 -136 -181 -163 -193 -225 -0 -0 -0
-0 -0 -0 -0 -0 -0 -0 -0 -0 -0 -156 -196 -212 -266 -263 -303 -404 -425 -337 -320 -319 -286 -310 -326 -352 -332 -346 -258 -270 -246 -209 -192 -158 -217 -218 -182 -209 -203 -299 -391 -450 -493 -0 -0 -0 -0 -0 -0 -0
-0 -0 -0 -0 -0 -0 -0 -0 -0 -144 -178 -214 -229 -255 -274 -341 -389 -395 -393 -391 -378 -388 -345 -351 -328 -294 -354 -348 -289 -244 -184 -193 -151 -186 -170 -203 -331 -342 -478 -0 -0 -0 -0 -0 -0 -0 -0 -0 -0
-0 -0 -0 -0 -0 -0 -0 -59 -143 -126 -154 -174 -221 -250 -322 -342 -376 -398 -378 -394 -420 -400 -352 -323 -305 -300 -280 -283 -295 -217 -176 -199 -301 -240 -369 -439 -250 -0 -0 -0 -0 -0 -0 -0 -0 -0 -0 -0 -0
-0 -0 -0 -0 -0 -0 -32 -43 -131 -93 -182 -143 -194 -242 -267 -305 -326 -311 -354 -394 -360 -298 -289 -283 -275 -243 -244 -324 -351 -458 -410 -433 -364 -212 -16 -0 -0 -0 -0 -0 -0 -0 -0 -0 -0 -0 -0 -0 -0
-0 -0 -0 -0 -0 -0 -53 -37 -174 -82 -221 -165 -73 -87 -122 -171 -177 -227 -259 -352 -469 -536 -506 -414 -401 -313 -389 -153 -174 -162 -137 -0 -0 -0 -0 -0 -0 -0 -0 -0 -0 -0 -0 -0 -0 -0 -0 -0 -0
-0 -0 -0 -0 -0 -0 -52 -137 -330 -469 -0 -0 -13 -43 -46 -137 -196 -197 -259 -350 -400 -470 -460 -431 -291 -255 -90 -0 -0 -0 -0 -0 -0 -0 -0 -0 -0 -0 -0 -0 -0 -0 -0 -0 -0 -0 -0 -0 -0
Wind_Speed
5 7 4 2 3 2 4 8 13 12 8 10 17 15 14 10 6 6 12 21 20 17 12 12 15 16 16 16 15 13 13 11 11 10 10 9 10 9 8 8 9 9 10 10 10 8 7 6 4
3 5 4 4 3 2 2 10 11 7 6 11 22 20 17 15 17 19 12 19 19 16 10 9 15 16 16 16 13 13 12 11 10 9 9 11 9 8 8 8 9 9 9 9 8 7 6 3 1
2 5 3 2 2 5 2 10 10 7 7 9 13 11 7 10 8 7 22 21 19 15 11 11 14 15 15 15 13 12 11 11 10 9 9 9 9 8 7 6 9 8 8 8 8 7 5 3 2
2 1 4 4 9 14 8 12 12 12 13 17 16 10 10 12 5 14 22 21 18 14 11 13 13 14 16 14 13 11 11 10 9 8 8 8 8 7 6 8 9 9 8 7 6 5 5 4 3
2 3 5 4 8 7 1 9 12 13 10 18 15 9 9 13 19 21 20 18 18 13 10 10 13 15 14 14 13 11 10 8 8 8 7 8 7 6 6 6 8 8 7 6 5 3 3 3 3
4 3 6 7 10 10 4 12 14 13 17 18 17 12 4 11 15 16 18 17 18 16 10 9 15 15 13 13 12 11 9 8 8 7 7 7 7 6 6 6 6 6 6 4 3 1 1 2 4
6 2 8 3 11 12 5 8 10 12 11 15 18 8 7 7 10 14 15 20 18 16 11 7 7 12 14 13 11 10 9 8 8 7 6 6 7 7 7 6 6 5 5 4 3 2 4 7 6
3 3 13 7 17 17 4 5 13 12 6 19 20 8 11 9 11 10 13 18 19 16 13 9 7 7 7 7 13 11 9 8 8 8 7 6 6 7 8 8 7 6 5 5 4 4 7 8 8
5 3 8 10 10 15 6 2 7 9 12 8 5 16 17 15 12 8 9 17 16 14 16 13 10 9 10 8 9 11 12 10 9 8 8 6 3 5 7 8 9 9 8 7 7 8 8 8 10
4 3 8 8 11 8 12 4 14 17 16 17 18 17 16 13 10 9 8 15 15 16 16 16 15 14 13 10 9 7 8 5 5 6 6 5 6 5 9 8 10 9 8 9 9 9 10 8 4
9 6 14 7 14 16 9 4 7 19 12 18 22 19 16 10 9 10 10 10 14 18 14 16 15 13 13 10 8 6 5 5 5 7 7 6 5 4 5 3 3 3 8 4 6 5 4 6 5
4 11 8 12 8 7 5 7 12 21 14 21 19 17 13 11 9 10 10 10 10 11 13 15 14 9 10 8 8 9 7 6 5 6 8 5 4 5 4 4 5 4 3 5 5 4 6 7 7
6 10 10 9 7 4 5 6 14 19 18 21 19 17 13 10 10 8 10 10 10 9 10 9 9 9 11 7 5 5 7 7 8 6 7 5 4 5 4 5 4 5 5 5 5 5 5 5 6
8 8 12 8 6 7 6 5 16 16 20 19 18 16 14 12 11 7 9 9 9 10 10 10 8 7 8 5 4 3 5 5 4 5 6 7 5 4 4 3 4 5 5 7 7 5 6 4 5
10 8 9 9 7 6 8 7 4 19 19 17 15 15 13 14 11 10 11 10 11 13 12 12 10 8 7 5 3 0 1 4 3 3 6 7 6 5 3 2 2 4 5 5 5 5 1 2 3
8 5 4 9 8 9 7 5 18 18 19 17 14 13 12 10 11 9 10 11 11 12 11 10 11 9 8 6 4 2 1 2 2 3 4 8 8 7 5 3 4 4 4 3 3 3 3 4 3
6 5 8 12 9 8 7 5 5 9 14 17 16 12 9 9 9 7 9 10 10 13 11 10 10 11 9 7 5 3 4 2 3 2 3 6 7 7 6 5 4 5 4 4 3 4 4 4 4
8 6 8 9 13 11 7 10 9 13 14 16 17 15 12 10 9 10 10 9 9 12 10 10 7 9 8 5 4 3 2 3 3 4 4 4 5 7 6 5 6 5 4 4 3 4 2 3 3
11 8 10 11 14 7 10 9 11 10 10 17 16 14 15 14 11 10 10 10 8 9 8 8 7 6 6 2 3 2 3 3 3 5 8 7 6 7 7 5 6 6 5 6 6 3 5 3 1
15 13 11 12 14 8 11 8 9 6 6 10 12 10 16 11 13 12 10 9 11 10 10 8 8 7 6 4 3 3 3 4 4 4 6 8 8 8 7 7 6 6 4 5 6 5 3 2 2
13 10 10 9 8 3 8 2 7 7 9 9 7 7 8 11 15 12 12 12 11 11 11 12 12 11 8 8 4 3 1 1 1 4 4 8 10 12 7 6 6 6 5 5 3 1 0 2 3
9 10 14 10 2 3 6 4 5 8 8 8 8 6 9 10 7 8 8 8 11 14 15 14 12 11 9 8 4 5 4 3 3 4 4 5 5 5 5 7 5 2 2 4 3 2 1 1 3
12 11 6 9 6 1 5 6 8 9 7 10 9 9 8 13 18 15 14 10 6 9 5 6 4 2 4 7 6 5 4 2 1 2 6 7 9 13 14 10 8 6 5 5 6 5 6 3 3
8 4 6 5 5 3 7 7 8 8 15 12 10 10 10 14 17 15 15 15 13 13 15 13 13 14 10 7 4 3 3 4 4 4 6 4 6 7 11 10 9 9 9 8 8 8 9 7 7
5 4 2 3 3 7 7 4 10 12 20 21 17 13 11 15 16 15 13 14 15 15 14 13 15 13 12 13 12 11 10 12 10 7 6 8 7 7 9 11 11 9 10 9 7 7 8 7 7
8 9 7 8 4 4 6 9 8 11 18 17 16 13 15 16 14 14 12 11 11 13 12 13 13 12 12 12 11 12 11 7 7 8 8 8 8 8 10 10 10 11 10 9 9 8 8 8 7
7 12 7 3 4 1 5 3 15 11 16 17 18 16 15 14 14 14 11 9 9 10 10 9 13 12 12 11 11 11 10 10 8 10 10 8 9 8 10 11 10 10 9 8 7 6 7 7 5
10 5 10 5 6 5 5 5 8 13 15 16 16 15 15 14 16 14 11 10 8 9 9 10 10 10 10 12 10 9 9 9 8 9 11 12 12 12 11 10 8 7 7 7 8 7 6 7 4
3 8 4 6 6 7 4 4 5 9 10 12 6 9 14 14 11 12 12 12 14 11 8 9 8 9 11 10 10 10 9 8 9 10 10 9 9 8 7 7 7 7 6 6 6 6 6 9 10
13 11 10 7 9 4 6 2 9 22 25 25 20 18 4 12 12 14 14 15 14 10 11 9 5 10 11 9 10 8 9 9 10 9 7 8 8 6 6 6 6 5 5 5 8 9 6 9 10
Wind_Direction
190 217 160 288 32 39 281 70 64 49 48 57 69 68 72 45 107 155 126 112 124 120 122 124 125 117 113 109 103 102 104 103 101 102 102 102 102 96 108 110 105 108 104 106 104 100 97 87 68
300 297 186 275 75 338 281 111 94 91 127 112 93 86 69 77 84 119 105 124 118 124 119 126 128 123 117 109 109 100 98 98 96 96 91 114 111 106 118 121 114 113 111 105 104 103 95 81 31
274 242 1 202 175 307 127 110 113 102 59 140 91 54 92 112 114 91 124 124 122 119 123 138 132 125 118 117 108 109 108 105 104 100 101 102 110 111 92 109 120 112 106 104 106 99 82 58 47
284 123 334 38 325 292 244 129 118 99 70 101 113 68 76 109 89 127 125 123 115 119 127 137 133 130 118 117 116 120 115 113 111 109 110 110 112 117 116 101 120 115 108 103 105 99 74 52 45
250 311 52 26 292 276 100 116 114 105 111 106 104 106 86 89 114 120 123 127 122 120 127 135 131 122 130 130 131 126 122 120 122 124 121 116 119 116 120 107 106 114 111 109 109 83 50 32 347
323 109 43 41 299 277 303 94 117 118 113 114 105 117 85 120 116 131 135 124 125 127 133 145 132 133 132 136 135 136 136 137 135 137 136 130 126 126 124 123 123 124 120 110 107 75 2 311 284
200 99 102 63 292 310 125 94 96 105 120 135 136 109 140 131 143 140 140 128 129 128 133 127 129 142 141 138 141 145 147 147 143 142 148 150 146 141 141 145 141 141 138 142 153 225 265 259 275
209 114 107 117 241 264 182 104 123 108 118 126 145 147 163 172 153 148 131 133 133 135 137 149 149 136 144 151 153 156 159 159 157 163 171 168 173 176 167 167 165 165 173 182 198 223 255 283 292
282 53 149 201 196 244 286 141 112 117 86 70 82 137 151 153 149 143 128 138 139 144 150 153 164 172 164 155 164 165 165 172 177 184 190 186 189 216 201 192 186 181 187 197 215 229 245 265 281
158 138 186 217 230 262 304 206 125 112 102 98 112 124 138 154 156 150 143 146 153 155 162 162 170 180 170 164 159 173 176 183 187 196 198 195 203 199 209 184 191 192 199 215 224 233 240 250 254
263 221 178 195 242 221 244 66 87 117 121 130 137 140 154 158 165 152 159 161 156 166 163 168 176 182 170 154 169 178 180 191 196 201 195 193 209 226 186 173 204 203 214 221 237 246 235 239 243
278 267 255 183 247 360 15 314 106 126 134 136 139 145 152 161 170 165 165 158 154 148 157 168 179 154 143 160 179 179 175 187 200 203 192 198 199 197 165 179 198 203 231 234 233 223 236 231 237
273 266 278 269 150 259 303 310 121 123 130 133 138 147 156 163 177 166 162 154 153 142 128 160 161 139 155 172 199 173 182 189 196 189 197 190 188 190 182 200 192 200 201 218 234 223 248 262 253
275 296 267 275 278 191 228 263 114 128 122 133 143 154 163 163 178 160 149 152 147 148 138 151 143 146 143 162 154 178 151 199 186 177 189 195 183 182 215 209 189 206 197 211 225 204 196 217 229
296 307 308 257 255 215 210 302 111 139 135 141 153 157 165 169 174 163 164 162 156 161 153 157 157 157 154 169 157 185 229 146 172 201 178 202 192 199 171 240 271 274 278 289 208 214 231 287 276
318 339 317 283 267 263 140 277 140 148 142 150 157 154 161 171 169 165 165 162 151 156 159 156 162 163 165 174 171 190 311 337 256 212 205 188 198 199 186 206 252 259 270 269 250 238 249 266 282
299 250 280 278 264 234 134 156 138 130 152 158 148 153 163 164 153 163 156 160 155 160 162 165 151 169 174 173 165 177 235 262 271 238 229 226 197 190 182 196 227 261 279 278 236 245 209 233 252
239 222 254 244 258 207 215 182 189 185 178 153 153 161 163 162 170 161 152 154 144 158 164 164 164 162 173 170 157 169 218 260 260 270 262 249 225 208 184 201 212 227 254 280 293 245 294 239 253
244 255 239 260 261 192 206 182 190 202 148 154 166 163 166 170 168 157 158 149 152 141 154 170 166 157 149 132 147 174 210 241 254 241 244 249 224 207 203 199 203 217 226 242 250 240 228 279 22
247 256 266 270 257 192 197 202 173 127 96 131 150 170 171 161 160 163 159 152 163 160 166 165 179 179 158 159 170 163 177 224 219 233 237 229 233 226 196 194 203 204 217 240 253 259 304 253 179
244 232 255 244 304 46 129 189 124 122 123 102 93 111 117 173 163 169 161 170 161 172 171 175 182 182 180 174 161 189 204 310 282 264 239 236 230 229 203 194 189 202 195 222 234 176 14 282 294
256 250 240 266 33 222 128 242 191 159 144 126 126 94 92 89 140 164 159 159 178 185 186 184 182 179 187 178 160 160 182 205 243 268 298 331 347 256 186 201 206 223 7 356 354 338 248 250 276
241 249 251 271 281 282 275 103 259 160 167 157 146 117 100 91 74 78 70 71 59 54 103 97 118 112 157 161 166 184 210 234 133 52 35 41 43 47 50 59 67 66 49 41 39 32 49 34 66
239 284 323 312 235 254 219 142 255 188 173 153 135 121 104 96 90 77 57 47 36 67 60 58 58 40 54 60 44 187 141 79 39 19 82 56 42 40 46 49 59 55 59 54 53 57 60 62 65
208 130 310 313 330 216 236 229 221 255 167 145 134 115 92 78 79 72 57 46 43 56 59 61 60 53 50 55 49 50 54 59 64 61 59 64 61 54 47 47 48 50 58 60 64 68 65 63 73
213 175 166 198 210 252 259 253 266 120 127 115 104 96 87 83 87 86 70 58 48 49 56 62 62 60 54 55 51 51 50 58 60 64 69 73 63 59 64 62 61 65 70 73 74 70 71 67 65
229 224 189 236 219 38 231 326 28 96 99 104 113 112 110 107 96 91 90 85 72 61 57 60 68 64 59 58 56 51 56 58 57 64 68 68 75 76 71 72 73 68 67 68 68 68 70 62 51
171 195 203 229 189 234 266 199 162 129 128 136 129 125 121 117 119 126 129 117 104 85 64 59 71 73 68 60 57 55 52 54 59 69 74 76 77 75 76 69 64 65 62 61 64 62 53 67 46
206 233 248 146 164 186 210 238 209 121 75 60 77 133 129 123 130 133 129 111 95 88 70 68 57 75 75 70 66 63 62 56 68 84 87 85 84 74 77 78 75 73 73 74 79 79 66 62 49
186 205 184 194 246 205 161 295 353 110 96 77 58 17 31 135 130 134 128 116 106 101 101 97 83 90 97 93 92 80 73 68 69 61 51 76 82 78 81 83 83 80 78 67 74 83 63 76 63